KI6IKQ Weather Reports


time (UTC)temp
C
wind
direction
speed
KPH
gust
KPH
rain 1hr
cm
rain 24hr
cm
rain mn
cm
humidity
%
barometer
mb
20260505040903 14 329 3.2 14.5 0.00 0.00 0.00 77 1014.4
20260505040003 14 342 3.2 8.0 0.00 0.00 0.00 77 1014.3
20260505035403 14 337 3.2 12.9 0.00 0.00 0.00 76 1014.2
20260505034503 14 344 3.2 11.3 0.00 0.00 0.00 76 1014.1
20260505033603 15 333 3.2 6.4 0.00 0.00 0.00 75 1014.1
20260505032703 15 340 3.2 8.0 0.00 0.00 0.00 75 1013.9
20260505031803 15 331 1.6 8.0 0.00 0.00 0.00 75 1013.7
20260505030903 15 325 1.6 9.7 0.00 0.00 0.00 76 1013.7
20260505030003 15 238 0.0 9.7 0.00 0.00 0.00 77 1013.5
20260505025403 16 211 0.0 1.6 0.00 0.00 0.00 77 1013.5
20260505024503 16 211 0.0 1.6 0.00 0.00 0.00 77 1013.5
20260505023603 16 203 0.0 3.2 0.00 0.00 0.00 76 1013.5
20260505022703 16 194 0.0 3.2 0.00 0.00 0.00 76 1013.5
20260505021803 16 187 0.0 3.2 0.00 0.00 0.00 75 1013.7
20260505020903 16 183 0.0 1.6 0.00 0.00 0.00 74 1013.8
20260505020003 16 181 0.0 1.6 0.00 0.00 0.00 72 1013.8
20260505015424 16 0 0.0 0.0 0.00 0.00 0.00 71 1013.8
20260505014503 16 0 0.0 0.0 0.00 0.00 0.00 70 1013.8
20260505013603 16 0 0.0 0.0 0.00 0.00 0.00 71 1013.7
20260505012703 16 181 0.0 1.6 0.00 0.00 0.00 71 1013.9
20260505011803 16 184 0.0 1.6 0.00 0.00 0.00 71 1013.9
20260505010924 16 183 0.0 3.2 0.00 0.00 0.00 70 1014.0
20260505010003 16 188 0.0 3.2 0.00 0.00 0.00 71 1013.9
20260505005403 16 186 0.0 3.2 0.00 0.00 0.00 70 1014.0
20260505004503 16 160 0.0 3.2 0.00 0.00 0.00 70 1013.9
20260505003603 17 162 0.0 3.2 0.00 0.00 0.00 70 1014.0
20260505002703 17 146 0.0 4.8 0.00 0.00 0.00 69 1014.1
20260505001803 17 138 0.0 1.6 0.00 0.00 0.00 69 1014.1
20260505000903 17 130 0.0 3.2 0.00 0.00 0.00 69 1014.1
20260505000003 17 117 0.0 3.2 0.00 0.00 0.00 68 1014.1
20260504235403 17 108 0.0 3.2 0.00 0.00 0.00 69 1014.1
20260504234524 17 104 0.0 3.2 0.00 0.00 0.00 69 1014.3
20260504233603 17 115 1.6 3.2 0.00 0.00 0.00 68 1014.2
20260504232703 17 111 1.6 3.2 0.00 0.00 0.00 69 1014.1
20260504231803 17 110 0.0 4.8 0.00 0.00 0.00 69 1014.1
20260504230903 17 97 1.6 3.2 0.00 0.00 0.00 68 1014.1
20260504230003 17 95 0.0 3.2 0.00 0.00 0.00 67 1014.1
20260504225405 17 103 0.0 3.2 0.00 0.00 0.00 67 1014.1
20260504224504 17 101 1.6 3.2 0.00 0.00 0.00 67 1014.2
20260504223603 17 97 1.6 4.8 0.00 0.00 0.00 66 1014.2
20260504222724 18 80 1.6 4.8 0.00 0.00 0.00 65 1014.2
20260504221824 18 62 1.6 4.8 0.00 0.00 0.00 64 1014.2
20260504220903 18 82 1.6 6.4 0.00 0.00 0.00 63 1014.3
20260504220003 19 42 3.2 6.4 0.00 0.00 0.00 62 1014.3
20260504215403 19 33 1.6 6.4 0.00 0.00 0.00 61 1014.4
20260504214524 20 63 1.6 6.4 0.00 0.00 0.00 60 1014.4
20260504213603 20 56 1.6 6.4 0.00 0.00 0.00 61 1014.5
20260504212724 20 15 1.6 8.0 0.00 0.00 0.00 60 1014.4
20260504211803 19 18 1.6 6.4 0.00 0.00 0.00 61 1014.5
20260504210903 19 330 3.2 6.4 0.00 0.00 0.00 62 1014.5
20260504210003 19 340 3.2 9.7 0.00 0.00 0.00 64 1014.6
20260504205403 19 321 3.2 9.7 0.00 0.00 0.00 66 1014.6
20260504204503 18 328 3.2 9.7 0.00 0.00 0.00 65 1014.6
20260504203603 18 265 1.6 6.4 0.00 0.00 0.00 62 1014.6
20260504202703 19 276 1.6 6.4 0.00 0.00 0.00 61 1014.6
20260504201803 19 327 1.6 8.0 0.00 0.00 0.00 61 1014.6
20260504200924 19 343 1.6 8.0 0.00 0.00 0.00 60 1014.7
20260504200003 20 318 1.6 6.4 0.00 0.00 0.00 60 1014.5
20260504195403 20 316 3.2 8.0 0.00 0.00 0.00 60 1014.5
20260504194503 20 271 1.6 4.8 0.00 0.00 0.00 61 1014.5
20260504193624 19 10 1.6 6.4 0.00 0.00 0.00 63 1014.5
20260504192703 18 45 0.0 3.2 0.00 0.00 0.00 61 1014.5
20260504191803 18 18 1.6 6.4 0.00 0.00 0.00 60 1014.8
20260504190903 18 76 1.6 6.4 0.00 0.00 0.00 60 1014.9
20260504190003 18 1 0.0 1.6 0.00 0.00 0.00 61 1014.8
20260504185403 18 4 0.0 3.2 0.00 0.00 0.00 62 1014.8
20260504184524 18 10 0.0 3.2 0.00 0.00 0.00 64 1014.7
20260504183624 18 40 0.0 4.8 0.00 0.00 0.00 64 1014.8
20260504182703 17 52 1.6 3.2 0.00 0.00 0.00 64 1014.8
20260504181803 17 93 0.0 4.8 0.00 0.00 0.00 65 1014.9
20260504180924 17 95 0.0 6.4 0.00 0.00 0.00 64 1015.0
20260504180024 17 97 0.0 6.4 0.00 0.00 0.00 65 1014.9
20260504175424 17 135 0.0 4.8 0.00 0.00 0.00 65 1015.0
20260504174524 17 193 0.0 3.2 0.00 0.00 0.00 66 1015.0
20260504173624 17 143 1.6 4.8 0.00 0.00 0.00 67 1014.8
20260504172724 16 84 0.0 3.2 0.00 0.00 0.00 68 1014.8
20260504171824 16 86 0.0 3.2 0.00 0.00 0.00 68 1014.7
20260504170903 16 106 1.6 4.8 0.00 0.00 0.00 71 1014.7
20260504150903 14 184 1.6 4.8 0.00 0.00 0.00 74 1014.2
20260504140924 12 338 0.0 1.6 0.00 0.00 0.00 81 1014.3
20260504081805 13 301 3.2 8.0 0.00 0.00 0.00 77 1014.2
20260504080903 13 297 3.2 8.0 0.00 0.00 0.00 78 1014.1
20260504050003 14 285 1.6 6.4 0.00 0.00 0.00 74 1013.2